Location: Big Meadows
(38.5260°N, 78.4400°W)
Time: 23:39:42
(UTC-05:00)

Amateur Radio Satellites - All Passes

Search period start: 18 January 2017 23:09
Search period end: 19 January 2017 23:09
Location: Big Meadows, 38.5260°N, 78.4400°W

Satellite Date Start Highest point End Downlink Frequencies (MHz)
Time Altitude Azimuth
50 SAT 18 Jan 23:10:33 23:13:39 28° 71° (ENE) 23:16:47 437.505
RS-15 18 Jan 23:12:19 23:23:23 50° 109° (ESE) 23:34:55 29.354- 29.394
AISAT 18 Jan 23:13:13 23:17:32 51° 73° (ENE) 23:21:51 437.250
UNISAT 6 18 Jan 23:16:37 23:20:22 27° 290° (WNW) 23:24:10 437.425
ISS 18 Jan 23:27:10 23:30:17 43° 326° (NW) 23:33:24 145.825
ESTCUBE 1 18 Jan 23:27:24 23:31:40 41° 261° (W) 23:35:58 437.505/2401.250
TIGRISAT 18 Jan 23:30:55 23:34:15 21° 292° (WNW) 23:37:38 435.000
JAS-2 18 Jan 23:31:02 23:38:13 86° 286° (WNW) 23:46:00 435.910
QB50P1 18 Jan 23:31:19 23:35:15 38° 98° (E) 23:39:12 145.935-145.965
POLYITAN 1 18 Jan 23:34:47 23:38:49 42° 99° (E) 23:42:51 437.675
QB50P2 18 Jan 23:35:56 23:40:01 47° 100° (E) 23:44:06 145.880/145.840
ANTELSAT 18 Jan 23:46:28 23:48:52 14° 295° (WNW) 23:51:17 437.575/2403.000
VELOX 1 18 Jan 23:46:36 23:51:01 71° 257° (WSW) 23:55:28 145.980
AO-85 18 Jan 23:51:56 23:55:44 49° 243° (WSW) 23:59:31 145.980
POPSAT HIP 1 18 Jan 23:57:50 00:02:03 80° 101° (E) 00:06:17 437.405
DUCHIFAT 1 19 Jan 00:11:03 00:15:16 84° 284° (WNW) 00:19:27 145.980
AIST 1 19 Jan 00:14:33 00:16:17 12° 70° (ENE) 00:18:01
NANOSAT C BR1 19 Jan 00:15:38 00:19:49 67° 285° (WNW) 00:23:59 145.865
Oscar 19 19 Jan 00:19:54 00:20:53 10° 89° (E) 00:21:52 437.125/150
DX 1 19 Jan 00:25:04 00:29:21 53° 260° (W) 00:33:38 434.975-435.025
UKube-1 19 Jan 00:27:49 00:32:07 69° 258° (WSW) 00:36:27 .
TISAT 1 19 Jan 00:28:49 00:32:33 33° 71° (ENE) 00:36:17 437.305
SPROUT 19 Jan 00:30:04 00:33:49 30° 263° (W) 00:37:35 437.525
BEESAT 3 19 Jan 00:34:58 00:37:12 14° 45° (NE) 00:39:25 437.485
CUBEBUG 1 19 Jan 00:41:23 00:42:48 11° 269° (W) 00:44:12 437.445
50 SAT 19 Jan 00:44:49 00:46:54 15° 266° (W) 00:49:02 437.505
AISAT 19 Jan 00:52:06 00:54:15 13° 268° (W) 00:56:25 437.250
BUGSAT 1 19 Jan 00:53:16 00:57:18 78° 284° (WNW) 01:01:21 437.445
YUBILEINY 19 Jan 01:00:58 01:09:20 44° 75° (ENE) 01:17:34 435.215
ISS 19 Jan 01:06:16 01:07:27 11° 345° (NNW) 01:08:37 145.825
PCSat 19 Jan 01:07:19 01:12:43 81° 116° (ESE) 01:18:10 145.827
QB50P1 19 Jan 01:08:01 01:10:43 17° 293° (WNW) 01:13:24 145.935-145.965
POLYITAN 1 19 Jan 01:11:45 01:14:15 15° 294° (WNW) 01:16:43 437.675
QB50P2 19 Jan 01:13:12 01:15:23 14° 295° (WNW) 01:17:36 145.880/145.840
BEESAT 2 19 Jan 01:15:24 01:18:02 16° 47° (NE) 01:20:39 435.950
ITUPSAT 1 19 Jan 01:17:31 01:21:17 24° 67° (ENE) 01:25:03 437.325
JAS-2 19 Jan 01:18:10 01:22:23 17° 300° (WNW) 01:26:47 435.910
RS-15 19 Jan 01:24:22 01:35:52 52° 312° (NW) 01:47:51 29.354- 29.394
Cosmos 2504 19 Jan 01:29:15 01:35:43 31° 72° (ENE) 01:41:57 435.465 / 435.565
Cosmos 2491 19 Jan 01:47:10 01:55:19 47° 88° (E) 02:03:29 435.465 / 435.565
AIST 1 19 Jan 01:50:04 01:54:11 49° 267° (W) 01:58:17
BEESAT 19 Jan 01:52:20 01:56:58 55° 73° (ENE) 02:01:37 436.000
SWISSCUBE 19 Jan 01:53:43 01:58:24 64° 74° (ENE) 02:03:07 437.505
Gurwin Techsat 1B 19 Jan 01:55:21 02:00:33 53° 100° (E) 02:05:44 435.225
Oscar 19 19 Jan 01:55:35 02:00:46 81° 285° (WNW) 02:05:55 437.125/150
MOZHAYETS 4 19 Jan 02:04:53 02:08:15 21° 67° (ENE) 02:11:38
TISAT 1 19 Jan 02:05:19 02:08:14 18° 266° (W) 02:11:09 437.305
BEESAT 3 19 Jan 02:11:13 02:15:09 57° 243° (WSW) 02:19:03 437.485
ITAMSAT 1 19 Jan 02:35:14 02:39:25 24° 95° (E) 02:43:34 435.822/435.867
PHONESAT 2.4 19 Jan 02:43:41 02:45:53 41° 159° (SSE) 02:48:04 2401.200-2431.200
M-CUBED/EXP-1 PRIME 19 Jan 02:47:40 02:51:52 42° 68° (ENE) 02:55:49 437.505
BEESAT 2 19 Jan 02:52:10 02:56:04 48° 244° (WSW) 02:59:56 435.950
PCSat 19 Jan 02:53:27 02:56:46 16° 315° (NW) 03:00:06 145.827
ITUPSAT 1 19 Jan 02:54:37 02:58:55 33° 263° (W) 03:03:14 437.325
KKS-1 19 Jan 02:57:01 03:00:34 24° 68° (ENE) 03:04:07 437.445
YUBILEINY 19 Jan 02:58:03 03:05:55 38° 274° (W) 03:13:44 435.215
AO-7 19 Jan 03:06:33 03:14:06 36° 98° (E) 03:21:34 29.400- 29.500
Cosmos 2504 19 Jan 03:22:21 03:29:12 42° 271° (W) 03:35:48 435.465 / 435.565
AUBIESAT-1 19 Jan 03:25:38 03:30:01 88° 241° (WSW) 03:34:09 437.475
CUSAT 1 19 Jan 03:30:45 03:35:28 80° 97° (E) 03:41:46 437.405
BEESAT 19 Jan 03:32:35 03:35:03 14° 268° (W) 03:37:32 436.000
SWISSCUBE 19 Jan 03:34:50 03:36:35 12° 269° (W) 03:38:21 437.505
Gurwin Techsat 1B 19 Jan 03:36:24 03:40:04 19° 296° (WNW) 03:43:43 435.225
MOZHAYETS 4 19 Jan 03:40:58 03:45:09 36° 263° (W) 03:49:23
RS-15 19 Jan 03:43:41 03:52:24 21° 343° (NNW) 04:01:14 29.354- 29.394
Cosmos 2491 19 Jan 03:44:28 03:52:15 36° 287° (WNW) 04:00:07 435.465 / 435.565
STARS 19 Jan 03:54:14 03:58:24 44° 72° (ENE) 04:02:34 437.465
DANDE 19 Jan 04:05:47 04:09:05 37° 90° (E) 04:13:21 436.750
BRITE-PL 19 Jan 04:14:02 04:17:17 18° 91° (E) 04:20:23 437.365/2234.400
ITAMSAT 1 19 Jan 04:14:08 04:18:56 38° 291° (WNW) 04:23:43 435.822/435.867
PHONESAT 2.4 19 Jan 04:17:44 04:19:59 51° 354° (N) 04:22:15 2401.200-2431.200
ISS 19 Jan 04:20:14 04:22:42 19° 26° (NNE) 04:25:09 145.825
CUBESAT XI-V 19 Jan 04:21:29 04:26:10 87° 77° (ENE) 04:30:55 437.345
M-CUBED/EXP-1 PRIME 19 Jan 04:23:30 04:26:22 17° 260° (W) 04:29:10 437.505
KKS-1 19 Jan 04:33:05 04:36:58 29° 263° (W) 04:40:52 437.445
AIST 2 19 Jan 04:34:51 04:38:52 39° 54° (NE) 04:42:51 435.215
AO-7 19 Jan 04:59:02 05:06:57 49° 296° (WNW) 05:14:49 29.400- 29.500
CUTE-I 19 Jan 05:14:39 05:16:47 12° 90° (E) 05:18:55 437.470
CUSAT 1 19 Jan 05:16:06 05:18:39 13° 302° (WNW) 05:21:28 437.405
STRAND 1 19 Jan 05:29:37 05:32:29 15° 62° (ENE) 05:35:22 437.568
STARS 19 Jan 05:32:26 05:34:56 15° 267° (W) 05:37:28 437.465
HORYU 2 19 Jan 05:34:36 05:38:59 56° 101° (E) 05:43:22 437.375
LilacSat-2 19 Jan 05:36:03 05:38:51 19° 94° (E) 05:41:38 437.200
Cosmos 2499 19 Jan 05:47:24 05:52:32 21° 68° (ENE) 05:57:34 435.465 / 435.565
NOAA 18 19 Jan 05:48:09 05:50:52 14° 91° (E) 05:53:35 137.9125
GONETS M04 19 Jan 05:48:41 05:55:07 22° 66° (ENE) 06:01:30
DANDE 19 Jan 05:50:17 05:52:20 14° 298° (WNW) 05:54:40 436.750
BRITE-PL 19 Jan 05:51:24 05:56:02 42° 289° (WNW) 06:00:19 437.365/2234.400
PHONESAT 2.4 19 Jan 05:51:57 05:54:14 64° 11° (N) 05:56:31 2401.200-2431.200
Cubesat XI-IV 19 Jan 05:55:11 05:59:54 31° 97° (E) 06:04:37 437.490
ISS 19 Jan 05:56:12 05:59:24 57° 223° (SW) 06:02:35 145.825
O/OREOS (USA 219) 19 Jan 05:56:14 05:59:55 26° 103° (ESE) 06:03:36 437.305
RS-15 19 Jan 06:02:22 06:11:26 22° 20° (NNE) 06:20:22 29.354- 29.394
GOMX 1 19 Jan 06:03:21 06:07:49 80° 283° (WNW) 06:12:01 467.674
NOAA 15 19 Jan 06:09:40 06:14:47 46° 100° (E) 06:19:51 137.62
AIST 2 19 Jan 06:14:07 06:17:02 18° 250° (WSW) 06:19:57 435.215
HO-68 19 Jan 06:22:38 06:25:33 13° 89° (E) 06:28:28 435.675
DOVE 4 19 Jan 06:50:24 06:54:33 63° 285° (WNW) 06:58:37 437.250
CUTE-I 19 Jan 06:52:00 06:57:21 74° 286° (WNW) 07:02:40 437.470
CINEMA 3 19 Jan 06:53:16 06:56:51 27° 96° (E) 07:00:30 145.822/145.860
CUTE 1.7 + AOD 2 19 Jan 07:03:50 07:07:02 20° 94° (E) 07:10:13 437.475
STRAND 1 19 Jan 07:06:05 07:11:07 63° 259° (W) 07:16:11 437.568
LilacSat-2 19 Jan 07:09:50 07:13:06 27° 289° (WNW) 07:16:23 437.200
HORYU 2 19 Jan 07:12:52 07:15:02 13° 296° (WNW) 07:17:12 437.375
PHONESAT 2.4 19 Jan 07:26:15 07:28:14 24° 206° (SSW) 07:30:12 2401.200-2431.200
NOAA 18 19 Jan 07:26:34 07:32:00 69° 287° (WNW) 07:37:24 137.9125
CANX-2 19 Jan 07:31:57 07:36:09 50° 99° (E) 07:40:19 2200.000
Cubesat XI-IV 19 Jan 07:35:15 07:39:53 31° 292° (WNW) 07:44:30 437.490
O/OREOS (USA 219) 19 Jan 07:35:23 07:39:12 27° 299° (WNW) 07:43:02 437.305
Cosmos 2499 19 Jan 07:39:12 07:46:14 63° 267° (W) 07:53:10 435.465 / 435.565
GONETS M04 19 Jan 07:44:01 07:52:52 78° 266° (W) 08:01:41
SEEDS 19 Jan 07:46:20 07:50:23 40° 98° (E) 07:54:23 437.485
NOAA 15 19 Jan 07:50:14 07:54:13 22° 295° (WNW) 07:58:10 137.62
COMPASS 1 19 Jan 07:54:48 07:58:37 32° 97° (E) 08:02:24 437.405
CUBEBUG 2 19 Jan 07:57:53 08:01:51 34° 98° (E) 08:05:54 437.445
HO-68 19 Jan 08:06:58 08:14:12 84° 105° (ESE) 08:21:22 435.675
AAUSAT CUBESAT 2 19 Jan 08:07:37 08:11:27 34° 97° (E) 08:15:16 437.432
RS-15 19 Jan 08:15:33 08:27:41 56° 50° (NE) 08:39:18 29.354- 29.394
SO-50 19 Jan 08:20:48 08:25:33 88° 304° (NW) 08:30:14 436.795
UWE-3 19 Jan 08:29:16 08:33:30 48° 99° (E) 08:37:49 435.000/436.395/437.385
FUNcube-1 19 Jan 08:29:34 08:33:15 26° 96° (E) 08:37:01 145.935
CINEMA 3 19 Jan 08:30:36 08:33:51 22° 291° (WNW) 08:37:10 145.822/145.860
UNISAT 6 19 Jan 08:38:19 08:41:14 18° 67° (ENE) 08:44:09 437.425
CUTE 1.7 + AOD 2 19 Jan 08:39:05 08:42:54 31° 289° (WNW) 08:46:41 437.475
PRISM 19 Jan 08:39:43 08:43:51 70° 75° (ENE) 08:48:01 437.425
ZACube-1 19 Jan 08:51:20 08:55:37 51° 100° (E) 08:59:58 437.345
TIGRISAT 19 Jan 08:51:35 08:54:58 23° 69° (ENE) 08:58:21 435.000
ANTELSAT 19 Jan 09:05:51 09:09:45 36° 72° (ENE) 09:13:39 437.575/2403.000
CANX-2 19 Jan 09:09:22 09:11:33 14° 295° (WNW) 09:13:43 2200.000
HUMSAT D 19 Jan 09:16:38 09:18:56 14° 92° (E) 09:21:12 437.325/437.525
SEEDS 19 Jan 09:23:05 09:25:43 16° 293° (WNW) 09:28:20 437.485
Oscar 11 19 Jan 09:30:31 09:34:51 68° 285° (WNW) 09:39:11 145.826/435.025
COMPASS 1 19 Jan 09:30:55 09:33:55 19° 292° (WNW) 09:36:54 437.405
CUBEBUG 2 19 Jan 09:35:06 09:38:15 20° 292° (WNW) 09:41:27 437.445
DELFI C3 19 Jan 09:37:15 09:41:05 44° 99° (E) 09:44:53 145.870
JAS-2 19 Jan 09:43:24 09:48:02 32° 66° (ENE) 09:53:01 435.910
AAUSAT CUBESAT 2 19 Jan 09:43:48 09:46:38 18° 293° (WNW) 09:49:28 437.432
GONETS M04 19 Jan 09:44:30 09:48:06 13° 285° (WNW) 09:51:43
HO-68 19 Jan 09:56:24 10:01:01 19° 303° (WNW) 10:05:38 435.675
PCSat 19 Jan 09:56:42 10:01:57 47° 57° (ENE) 10:07:09 145.827
SO-50 19 Jan 10:04:29 10:06:40 13° 319° (NW) 10:08:50 436.795
FUNcube-1 19 Jan 10:05:47 10:09:24 26° 290° (WNW) 10:13:04 145.935
UWE-3 19 Jan 10:07:08 10:09:35 15° 294° (WNW) 10:12:02 435.000/436.395/437.385
UNISAT 6 19 Jan 10:13:47 10:17:42 35° 263° (W) 10:21:36 437.425
QB50P1 19 Jan 10:22:37 10:26:00 24° 69° (ENE) 10:29:23 145.935-145.965
POLYITAN 1 19 Jan 10:26:11 10:29:41 26° 70° (ENE) 10:33:13 437.675
QB50P2 19 Jan 10:27:13 10:30:52 29° 70° (ENE) 10:34:30 145.880/145.840
TIGRISAT 19 Jan 10:27:57 10:31:33 26° 264° (W) 10:35:08 435.000
RS-15 19 Jan 10:28:36 10:39:54 46° 252° (WSW) 10:50:46 29.354- 29.394
ZACube-1 19 Jan 10:29:09 10:31:29 14° 294° (WNW) 10:33:49 437.345
BY70-1 19 Jan 10:42:35 10:45:31 28° 96° (E) 10:48:16 436.1900
ANTELSAT 19 Jan 10:43:46 10:46:34 17° 267° (W) 10:49:23 437.575/2403.000
POPSAT HIP 1 19 Jan 10:48:39 10:52:40 47° 73° (ENE) 10:56:42 437.405
HUMSAT D 19 Jan 10:50:38 10:54:43 45° 287° (WNW) 10:58:49 437.325/437.525
CUBEBUG 1 19 Jan 10:54:00 10:55:33 12° 91° (E) 10:57:06 437.445
DUCHIFAT 1 19 Jan 11:01:06 11:05:11 56° 74° (ENE) 11:09:16 145.980
NANOSAT C BR1 19 Jan 11:05:50 11:10:00 72° 75° (ENE) 11:14:11 145.865
AISAT 19 Jan 11:07:40 11:08:21 10° 90° (E) 11:09:02 437.250
DELFI C3 19 Jan 11:13:35 11:15:29 13° 294° (WNW) 11:17:22 145.870
ESTCUBE 1 19 Jan 11:21:01 11:25:22 44° 99° (E) 11:29:40 437.505/2401.250
JAS-2 19 Jan 11:28:35 11:33:08 29° 266° (W) 11:38:00 435.910
Oscar 19 19 Jan 11:34:17 11:37:16 16° 62° (ENE) 11:40:15 437.125/150
VELOX 1 19 Jan 11:38:36 11:42:09 23° 95° (E) 11:45:39 145.980
PCSat 19 Jan 11:40:52 11:44:59 22° 254° (WSW) 11:49:05 145.827
BUGSAT 1 19 Jan 11:41:12 11:45:11 57° 74° (ENE) 11:49:10 437.445
QB50P1 19 Jan 11:58:10 12:01:39 25° 264° (W) 12:05:09 145.935-145.965
Cosmos 2491 19 Jan 11:59:55 12:06:13 21° 66° (ENE) 12:12:30 435.465 / 435.565
POLYITAN 1 19 Jan 12:02:06 12:05:26 23° 265° (W) 12:08:46 437.675
QB50P2 19 Jan 12:03:28 12:06:39 21° 265° (W) 12:09:50 145.880/145.840
50 SAT 19 Jan 12:10:09 12:13:30 38° 99° (E) 12:16:49 437.505
BY70-1 19 Jan 12:13:51 12:15:33 13° 293° (WNW) 12:17:12 436.1900
DX 1 19 Jan 12:14:54 12:18:37 27° 97° (E) 12:22:19 434.975-435.025
SPROUT 19 Jan 12:16:35 12:20:41 47° 99° (E) 12:24:47 437.525
UKube-1 19 Jan 12:16:57 12:20:13 21° 95° (E) 12:23:28 .
CUSAT 1 19 Jan 12:26:12 12:28:44 12° 58° (ENE) 12:31:13 437.405
POPSAT HIP 1 19 Jan 12:26:45 12:28:40 13° 268° (W) 12:30:37 437.405
CUBEBUG 1 19 Jan 12:27:55 12:32:09 54° 287° (WNW) 12:36:20 437.445
DUCHIFAT 1 19 Jan 12:40:24 12:41:11 10° 269° (W) 12:41:57 145.980
AISAT 19 Jan 12:40:51 12:45:12 63° 286° (WNW) 12:49:31 437.250
ESTCUBE 1 19 Jan 12:58:53 13:01:46 17° 295° (WNW) 13:04:40 437.505/2401.250
Oscar 19 19 Jan 13:10:52 13:16:01 65° 258° (WSW) 13:21:12 437.125/150
VELOX 1 19 Jan 13:14:47 13:18:33 28° 291° (WNW) 13:22:19 145.980
Gurwin Techsat 1B 19 Jan 13:14:55 13:20:11 73° 74° (ENE) 13:25:30 435.225
50 SAT 19 Jan 13:45:03 13:46:19 12° 294° (WNW) 13:47:37 437.505
TISAT 1 19 Jan 13:48:51 13:53:01 73° 102° (ESE) 13:57:10 437.305
DX 1 19 Jan 13:51:11 13:54:40 24° 292° (WNW) 13:58:07 434.975-435.025
ITAMSAT 1 19 Jan 13:51:44 13:56:17 32° 68° (ENE) 14:00:50 435.822/435.867
UKube-1 19 Jan 13:52:28 13:56:16 31° 290° (WNW) 14:00:02 .
SPROUT 19 Jan 13:53:54 13:56:12 14° 295° (WNW) 13:58:28 437.525
BEESAT 19 Jan 13:55:07 13:57:58 16° 93° (E) 14:00:49 436.000
Cosmos 2491 19 Jan 13:55:13 14:04:00 79° 266° (W) 14:12:47 435.465 / 435.565
SWISSCUBE 19 Jan 13:56:15 13:59:34 18° 94° (E) 14:02:51 437.505
YUBILEINY 19 Jan 13:59:39 14:08:05 53° 90° (E) 14:16:35 435.215
AO-7 19 Jan 14:03:47 14:11:33 45° 63° (ENE) 14:19:22 29.400- 29.500
AO-85 19 Jan 14:03:58 14:08:45 71° 119° (ESE) 14:13:10 145.980
CUSAT 1 19 Jan 14:04:25 14:12:19 60° 77° (ENE) 14:19:39 437.405
Cosmos 2504 19 Jan 14:05:07 14:12:25 31° 85° (E) 14:19:22 435.465 / 435.565
AIST 1 19 Jan 14:17:09 14:21:33 81° 279° (W) 14:25:55
DANDE 19 Jan 14:41:46 14:49:09 45° 75° (ENE) 14:57:03 436.750
ITUPSAT 1 19 Jan 14:55:47 15:00:35 68° 102° (ESE) 15:05:23 437.325
Gurwin Techsat 1B 19 Jan 14:58:27 15:00:38 12° 270° (W) 15:02:49 435.225
BRITE-PL 19 Jan 15:22:03 15:26:25 23° 66° (ENE) 15:30:44 437.365/2234.400
ITAMSAT 1 19 Jan 15:31:18 15:35:42 28° 264° (W) 15:40:08 435.822/435.867
BEESAT 19 Jan 15:31:22 15:36:00 50° 288° (WNW) 15:40:37 436.000
SWISSCUBE 19 Jan 15:32:58 15:37:30 43° 289° (WNW) 15:42:02 437.505
GOMX 1 19 Jan 15:34:51 15:36:34 12° 62° (ENE) 15:38:16 467.674
MOZHAYETS 4 19 Jan 15:36:47 15:41:22 57° 100° (E) 15:45:56
AO-85 19 Jan 15:46:57 15:49:31 15° 314° (NW) 15:52:02 145.980
CUSAT 1 19 Jan 15:47:13 15:53:40 28° 275° (W) 15:59:45 437.405
Cosmos 2491 19 Jan 15:55:39 15:59:17 13° 284° (WNW) 16:02:56 435.465 / 435.565
AO-7 19 Jan 15:56:38 16:04:18 40° 261° (W) 16:12:04 29.400- 29.500
Cosmos 2504 19 Jan 15:56:53 16:05:23 54° 282° (WNW) 16:13:27 435.465 / 435.565
YUBILEINY 19 Jan 15:57:33 16:05:11 32° 289° (WNW) 16:12:54 435.215
JUGNU 19 Jan 15:59:56 16:02:01 12° 178° (S) 16:04:05 437.505
BEESAT 3 19 Jan 16:00:00 16:03:24 30° 114° (ESE) 16:06:53 437.485
M-CUBED/EXP-1 PRIME 19 Jan 16:02:38 16:05:36 29° 102° (ESE) 16:08:29 437.505
O/OREOS (USA 219) 19 Jan 16:06:48 16:11:03 39° 64° (ENE) 16:15:17 437.305
DOVE 4 19 Jan 16:19:40 16:21:14 11° 64° (ENE) 16:22:47 437.250
CUBESAT XI-V 19 Jan 16:20:05 16:23:53 24° 95° (E) 16:27:39 437.345
DANDE 19 Jan 16:24:36 16:31:46 40° 270° (W) 16:39:21 436.750
KKS-1 19 Jan 16:24:38 16:29:00 56° 101° (E) 16:33:20 437.445
HORYU 2 19 Jan 16:31:05 16:35:13 42° 72° (ENE) 16:39:24 437.375
CUTE-I 19 Jan 16:34:29 16:38:09 19° 64° (ENE) 16:41:50 437.470
ITUPSAT 1 19 Jan 16:35:39 16:37:49 13° 298° (WNW) 16:40:00 437.325
AUBIESAT-1 19 Jan 16:39:56 16:43:18 82° 106° (ESE) 16:46:35 437.475
BEESAT 2 19 Jan 16:42:06 16:45:45 38° 115° (ESE) 16:49:27 435.950
SO-50 19 Jan 16:53:40 16:58:05 53° 55° (NE) 17:02:26 436.795
BRITE-PL 19 Jan 16:58:59 17:04:28 50° 262° (W) 17:09:58 437.365/2234.400
GOMX 1 19 Jan 17:08:27 17:13:55 90° 60° (ENE) 17:19:11 467.674
NOAA 18 19 Jan 17:12:16 17:16:40 25° 65° (ENE) 17:21:04 137.9125
MOZHAYETS 4 19 Jan 17:15:35 17:18:01 14° 296° (WNW) 17:20:27
Cubesat XI-IV 19 Jan 17:15:40 17:20:41 45° 71° (ENE) 17:25:45 437.490
STARS 19 Jan 17:20:49 17:25:11 76° 285° (WNW) 17:29:33 437.465
SRMSAT 19 Jan 17:28:04 17:29:26 11° 173° (S) 17:30:47 437.500
NOAA 15 19 Jan 17:28:10 17:33:22 64° 73° (ENE) 17:38:38 137.62
BEESAT 3 19 Jan 17:38:00 17:41:03 22° 311° (NW) 17:44:09 437.485
M-CUBED/EXP-1 PRIME 19 Jan 17:38:11 17:39:49 13° 299° (WNW) 17:41:25 437.505
O/OREOS (USA 219) 19 Jan 17:47:07 17:50:06 18° 260° (W) 17:53:06 437.305
LilacSat-2 19 Jan 17:49:29 17:53:13 69° 258° (WSW) 17:56:59 437.200
DOVE 4 19 Jan 17:53:16 17:58:20 79° 257° (WSW) 18:03:09 437.250
CINEMA 3 19 Jan 17:53:49 17:57:16 22° 69° (ENE) 18:00:36 145.822/145.860
CUTE 1.7 + AOD 2 19 Jan 17:56:28 17:58:18 13° 65° (ENE) 18:00:10 437.475
CUBESAT XI-V 19 Jan 17:57:07 18:01:15 31° 290° (WNW) 18:05:20 437.345
KKS-1 19 Jan 18:02:59 18:05:03 13° 296° (WNW) 18:07:08 437.445
HORYU 2 19 Jan 18:09:17 18:11:56 16° 267° (W) 18:14:37 437.375
CUTE-I 19 Jan 18:12:36 18:17:46 52° 260° (W) 18:22:57 437.470
BEESAT 2 19 Jan 18:20:50 18:23:41 19° 312° (NW) 18:26:33 435.950
Cosmos 2499 19 Jan 18:22:57 18:28:32 20° 82° (E) 18:33:52 435.465 / 435.565
CANX-2 19 Jan 18:23:22 18:27:02 29° 71° (ENE) 18:30:45 2200.000
HO-68 19 Jan 18:33:35 18:40:31 54° 68° (ENE) 18:47:29 435.675
AIST 2 19 Jan 18:33:51 18:34:54 11° 107° (ESE) 18:35:56 435.215
SO-50 19 Jan 18:35:34 18:38:03 15° 251° (WSW) 18:40:32 436.795
SEEDS 19 Jan 18:36:52 18:40:15 24° 69° (ENE) 18:43:38 437.485
COMPASS 1 19 Jan 18:44:37 18:47:35 19° 68° (ENE) 18:50:34 437.405
GONETS M04 19 Jan 18:48:50 18:55:27 25° 82° (E) 19:02:06
NOAA 18 19 Jan 18:51:52 18:57:03 42° 261° (W) 19:02:15 137.9125
CUBEBUG 2 19 Jan 18:55:13 18:58:30 23° 69° (ENE) 19:01:46 437.445
AAUSAT CUBESAT 2 19 Jan 18:56:50 18:59:52 20° 68° (ENE) 19:02:54 437.432
Cubesat XI-IV 19 Jan 18:57:01 19:00:57 21° 266° (W) 19:04:54 437.490
NOAA 15 19 Jan 19:10:43 19:13:33 15° 269° (W) 19:16:25 137.62
SRMSAT 19 Jan 19:15:33 19:17:41 12° 183° (S) 19:19:50 437.500
STRAND 1 19 Jan 19:17:55 19:22:55 49° 100° (E) 19:27:54 437.568
FUNcube-1 19 Jan 19:24:42 19:27:19 16° 67° (ENE) 19:29:55 145.935
UWE-3 19 Jan 19:25:13 19:28:51 30° 71° (ENE) 19:32:30 435.000/436.395/437.385
CUTE 1.7 + AOD 2 19 Jan 19:29:30 19:33:38 54° 260° (W) 19:37:50 437.475
CINEMA 3 19 Jan 19:30:20 19:34:15 29° 263° (W) 19:38:03 145.822/145.860
ZACube-1 19 Jan 19:46:03 19:49:41 31° 71° (ENE) 19:53:22 437.345
CANX-2 19 Jan 19:59:38 20:02:53 21° 266° (W) 20:06:10 2200.000
AIST 2 19 Jan 20:08:44 20:12:47 61° 303° (WNW) 20:16:56 435.215
SEEDS 19 Jan 20:12:15 20:15:48 26° 265° (W) 20:19:23 437.485
Cosmos 2499 19 Jan 20:12:18 20:20:51 77° 278° (W) 20:28:48 435.465 / 435.565
COMPASS 1 19 Jan 20:19:06 20:22:52 33° 263° (W) 20:26:41 437.405
DELFI C3 19 Jan 20:21:48 20:24:52 22° 69° (ENE) 20:27:58 145.870
HO-68 19 Jan 20:22:36 20:28:30 27° 265° (W) 20:34:27 435.675
Oscar 11 19 Jan 20:23:22 20:27:39 75° 76° (ENE) 20:31:59 145.826/435.025
AAUSAT CUBESAT 2 19 Jan 20:31:24 20:35:07 31° 264° (W) 20:38:51 437.432
CUBEBUG 2 19 Jan 20:31:31 20:35:01 26° 264° (W) 20:38:30 437.445
GONETS M04 19 Jan 20:42:53 20:51:28 65° 280° (W) 21:00:11
STRAND 1 19 Jan 20:58:08 21:01:42 19° 296° (WNW) 21:05:16 437.568
FUNcube-1 19 Jan 20:59:26 21:03:14 36° 262° (W) 21:07:05 145.935
UWE-3 19 Jan 21:02:25 21:05:21 19° 266° (W) 21:08:19 435.000/436.395/437.385
ZACube-1 19 Jan 21:23:07 21:26:01 18° 266° (W) 21:28:57 437.345
HUMSAT D 19 Jan 21:39:51 21:43:56 82° 259° (W) 21:48:05 437.325/437.525
DELFI C3 19 Jan 21:56:09 21:59:31 26° 264° (W) 22:02:55 145.870
PRISM 19 Jan 21:57:40 22:01:44 57° 286° (WNW) 22:05:43 437.425
UNISAT 6 19 Jan 22:05:59 22:10:18 49° 100° (E) 22:14:41 437.425
Cosmos 2499 19 Jan 22:11:28 22:15:10 13° 296° (WNW) 22:18:46 435.465 / 435.565
ESTCUBE 1 19 Jan 22:19:01 22:23:06 34° 71° (ENE) 22:27:12 437.505/2401.250
TIGRISAT 19 Jan 22:19:31 22:23:55 65° 101° (ESE) 22:28:25 435.000
BY70-1 19 Jan 22:25:31 22:28:27 87° 69° (ENE) 22:31:38 436.1900
ANTELSAT 19 Jan 22:34:32 22:38:59 80° 283° (WNW) 22:43:31 437.575/2403.000
ISS 19 Jan 22:34:51 22:38:06 84° 326° (NW) 22:41:22 145.825
VELOX 1 19 Jan 22:34:54 22:37:59 19° 66° (ENE) 22:41:05 145.980
JAS-2 19 Jan 22:36:23 22:43:11 41° 98° (E) 22:50:25 435.910
AO-85 19 Jan 22:37:06 22:40:42 34° 53° (NE) 22:44:16 145.980
RS-15 19 Jan 22:37:22 22:47:43 38° 105° (ESE) 22:58:26 29.354- 29.394
50 SAT 19 Jan 22:44:46 22:46:36 14° 67° (ENE) 22:48:27 437.505
GONETS M04 19 Jan 22:47:59 22:50:15 11° 302° (WNW) 22:52:31
NANOSAT C BR1 19 Jan 22:53:21 22:55:11 12° 92° (E) 22:57:00 145.865
